This demonstration page uses our WeatherBlox Daily Observations layout. Learn more.

Left ArrowRight Arrow

Hourly Observations for June 6, 2015

Temp ( °F °C ) Dew Point ( °F °C ) Humidity (%) Winds ( mph kmh ) Pressure ( in mb ) Visibility ( mi km ) Precip ( " mm )
12:59 am 00:59 Cloudy 71 21.7 63 17.2 76 76 WNW 5 7 29.93 1013 10 16 0.00 0.00
1:59 am 01:59 Cloudy 72 22.2 63 17.2 73 73 NW 7 11 29.93 1013 10 16 0.00 0.00
2:59 am 02:59 Cloudy 71 21.7 62 16.7 73 73 NW 8 13 29.91 1013 10 16 0.00 0.00
3:59 am 03:59 Cloudy 72 22.2 62 16.7 71 71 N 7 11 29.91 1013 10 16 0.00 0.00
4:59 am 04:59 Cloudy 72 22.2 62 16.7 71 71 N 7 11 29.90 1012 10 16 0.00 0.00
5:59 am 05:59 Cloudy 72 22.2 62 16.7 71 71 NNW 7 11 29.91 1013 10 16 0.00 0.00
6:59 am 06:59 Cloudy 72 22.2 63 17.2 73 73 NNW 5 7 29.92 1013 9 14 0.00 0.00
7:59 am 07:59 Mostly Cloudy 73 22.8 63 17.2 71 71 NNW 5 7 29.93 1014 8 13 0.00 0.00
8:59 am 08:59 Cloudy 74 23.3 63 17.2 69 69 VRB 5 7 29.93 1013 9 14 0.00 0.00
9:29 am 09:29 Cloudy 75 23.9 63 17.2 66 66 NW 5 7 29.94 1014 10 16 0.00 0.00
9:59 am 09:59 Cloudy 76 24.4 64 17.8 67 67 VRB 3 6 29.93 1014 10 16 0.00 0.00
10:59 am 10:59 Mostly Cloudy 77 25 64 17.8 64 64 WNW 6 9 29.93 1014 10 16 0.00 0.00
11:59 am 11:59 Mostly Cloudy 79 26.1 65 18.3 62 62 NNE 6 9 29.94 1014 9 14 0.00 0.00
12:59 pm 12:59 Mostly Cloudy 81 27.2 67 19.4 62 62 NNE 10 17 29.95 1014 10 16 0.00 0.00
1:59 pm 13:59 Mostly Cloudy 81 27.2 66 18.9 61 61 NNE 10 17 29.94 1014 10 16 0.00 0.00
2:59 pm 14:59 Mostly Cloudy 82 27.8 66 18.9 58 58 NE 8 13 29.93 1014 10 16 0.00 0.00
3:59 pm 15:59 Mostly Cloudy 82 27.8 65 18.3 56 56 NE 8 13 29.93 1013 10 16 0.00 0.00
4:59 pm 16:59 Mostly Cloudy 81 27.2 63 17.2 54 54 NE 12 19 29.94 1014 10 16 0.00 0.00
5:36 pm 17:36 Mostly Cloudy with Thunderstorms 79 26.1 64 17.8 60 60 ENE 9 15 29.94 1014 10 16 0.00 0.00
5:59 pm 17:59 Mostly Cloudy with Thunderstorms 79 26.1 63 17.2 58 58 NNE 10 17 29.96 1015 10 16 0.00 0.00
6:38 pm 18:38 Mostly Cloudy 78 25.6 66 18.9 67 67 NE 18 30 29.97 1015 10 16 0.00 0.00
6:59 pm 18:59 Mostly Cloudy 75 23.9 61 16.1 62 62 E 12 19 29.96 1015 10 16 0.00 0.00
7:59 pm 19:59 Partly Cloudy 75 23.9 59 15 58 58 NE 13 20 29.99 1016 10 16 0.00 0.00
8:59 pm 20:59 Mostly Cloudy 72 22.2 63 17.2 73 73 ENE 16 26 30.01 1016 10 16 0.00 0.00
9:47 pm 21:47 Mostly Cloudy 73 22.8 62 16.7 69 69 ENE 14 22 30.03 1017 10 16 0.00 0.00
9:59 pm 21:59 Partly Cloudy 71 21.7 61 16.1 71 71 ENE 13 20 30.03 1017 10 16 0.00 0.00
10:59 pm 22:59 Mostly Clear 71 21.7 60 15.6 68 68 NE 8 13 30.06 1018 10 16 0.00 0.00
11:59 pm 23:59 Mostly Clear 70 21.1 60 15.6 71 71 NE 10 17 30.07 1018 10 16 0.00 0.00

Powered by AerisWeather